Regional Weather Roundup
Issued by NWS

Home | Current Version | Previous Version | Graphics & Text | Print | Product List | Glossary On
Versions: 1 2 3 4 5 6 7 8 9 10 11 12 13 14 15 16 17 18 19 20 21 22 23 24 25 26 27 28 29 30 31 32 33 34 35 36 37 38 39 40 41 42 43 44 45 46 47 48 49 50
000
ASUS43 KLOT 232110
RWRIL

ILLINOIS REGIONAL WEATHER ROUNDUP
NATIONAL WEATHER SERVICE CHICAGO/ROMEOVILLE IL
400 PM CDT WED APR 23 2014

NOTE: "FAIR" INDICATES FEW OR NO CLOUDS BELOW 12,000 FEET WITH NO
SIGNIFICANT WEATHER AND/OR OBSTRUCTIONS TO VISIBILITY.

* THESE STATIONS ARE NOT UNDER NWS QUALITY CONTROL. THEY ALSO MAY NOT
  REPORT WEATHER SUCH AS PRECIPITATION OR FOG.

ILZ001-002-007-009-015-016-024-232200-
NORTHWEST ILLINOIS

CITY           SKY/WX    TMP DP  RH WIND       PRES   REMARKS
MOLINE         CLOUDY    56  28  34 E9        30.07F
STERLING*      CLOUDY    55  28  35 SE5       30.10S
SAVANNA*       CLOUDY    54  27  35 E9        30.10F
$$

ILZ003-004-008-010-011-017-018-232200-
NORTH CENTRAL ILLINOIS

CITY           SKY/WX    TMP DP  RH WIND       PRES   REMARKS
ROCKFORD       CLOUDY    55  25  31 SE8       30.12F
FREEPORT*      CLOUDY    52  22  30 SE9       30.12S
ROCHELLE*      CLOUDY    56  24  29 SE8       30.10S
DE KALB*       PTSUNNY   53  24  32 E9        30.11S
PERU*          PTSUNNY   57  30  35 CALM      30.09F
$$

ILZ005-006-012>014-019>023-232200-
NORTHEAST ILLINOIS

CITY           SKY/WX    TMP DP  RH WIND       PRES   REMARKS
CHICAGO-OHARE  PTSUNNY   49  23  36 NE9G18    30.12F
CHICAGO-MIDWAY PTSUNNY   50  28  42 NE10      30.13F
AURORA         MOSUNNY   56  26  31 NE7       30.11F
LANSING*       SUNNY     46  28  48 NE10      30.13F
JOLIET*        SUNNY     54  26  34 NE9       30.11S
WAUKEGAN       MOSUNNY   44  20  38 NE9       30.13F
DUPAGE AIRPORT MOSUNNY   52  24  33 E10       30.11F
KANKAKEE*      SUNNY     55  31  40 NE6       30.09F
WHEELING       SUNNY     47  24  40 NE12      30.14F
MORRIS*        MOSUNNY   58  21  24 E8        30.09F
ROMEOVILLE*    SUNNY     53  26  35 E10       30.10F
NORTHERLY ISL    N/A     43  32  65 N12         N/A
$$

LMZ740>746-232200-
SOUTHERN LAKE MICHIGAN

STATION/POSITION SKY/WX   TEMP    WIND        PRES    VSBY  WAVE
                          AIR SEA DIR/SP/G                  HT/PER
                          (F)     (DEG/KT/KT) (MB)    (MI)  (FT/S)
WAUKEGAN HARBOR            38      40/  9/ 10 1022.4S
HARRISON CRIB              37      10/ 12/ 14   N/A
BURNHAM HARBOR             42      20/ 13       N/A
CALUMET HARBOR             41      20/ 11/ 14 1021.4F
MICHIGAN CITY              37      10/ 12/ 14   N/A
$$

ILZ025>027-034>036-040-047-049-050-058-095>099-232200-
WEST-CENTRAL ILLINOIS

CITY           SKY/WX    TMP DP  RH WIND       PRES   REMARKS
QUINCY         CLOUDY    59  32  36 SE15      30.00F
GALESBURG*     LGT RAIN  57  31  38 SE5       30.06F
MACOMB*        CLOUDY    58  27  30 SE9       30.07S
JACKSONVILLE*  PTSUNNY   61  29  30 E7        30.05F
PITTSFIELD*    LGT RAIN  62  34  35 SE8       30.03F
$$

ILZ028>032-037-038-041>044-048-051>054-059>061-232200-
CENTRAL ILLINOIS

CITY           SKY/WX    TMP DP  RH WIND       PRES   REMARKS
PONTIAC        SUNNY     59  28  31 E5        30.08S
BLOOMINGTON    SUNNY     60  26  27 SE8       30.08F
DECATUR        SUNNY     62  27  26 E6        30.05F
PEORIA         PTSUNNY   62  28  27 E7        30.07F
LACON*         PTSUNNY   58  28  32 SE6       30.08S
LINCOLN*       MOSUNNY   63  25  23 E3        30.05S
SPRINGFIELD    PTSUNNY   64  28  25 SE9       30.05F
TAYLORVILLE    MOSUNNY   61  27  27 E7        30.05F
$$

ILZ033-039-045-046-055>057-062-063-232200-
EAST-CENTRAL ILLINOIS

CITY           SKY/WX    TMP DP  RH WIND       PRES   REMARKS
CHAMPAIGN      MOSUNNY   62  26  25 E7        30.06F
RANTOUL*       SUNNY     63  23  21 CALM      30.08S
MATTOON        SUNNY     60  26  27 SE3       30.05F
PARIS*         SUNNY     61  31  32 E5        30.07F
$$

ILZ079-100>102-232200-
SOUTHWEST ILLINOIS

CITY           SKY/WX    TMP DP  RH WIND       PRES   REMARKS
ALTON          CLOUDY    64  28  25 E12       30.03F
BELLEVILLE     MOSUNNY   64  37  38 SE9       30.03F
CAHOKIA*       PTSUNNY   64  37  36 E7        30.03F
SPARTA*        SUNNY     63  37  39 E7        30.04F
$$

ILZ064>066-069>071-074>076-080>082-084>086-088>090-092>094-232200-
SOUTH-CENTRAL ILLINOIS

CITY           SKY/WX    TMP DP  RH WIND       PRES   REMARKS
CARBONDALE     SUNNY     66  35  31 NE7       30.03F
CAIRO*         SUNNY     71  35  26 NE8       30.02F
MARION         MOSUNNY   68  34  28 SE14      30.04F
MT. VERNON     SUNNY    N/A N/A N/A CALM      30.05F
CENTRALIA*     SUNNY     65  29  26 NE6       30.04F
SALEM*         SUNNY     64  33  31 NE5       30.05F
METROPOLIS*    SUNNY     68  27  21 E3        30.01F
$$

ILZ067-068-072-073-078-083-087-091-232200-
SOUTHEAST ILLINOIS

CITY           SKY/WX    TMP DP  RH WIND       PRES   REMARKS
FLORA*         SUNNY     62  30  30 CALM      30.05F
FAIRFIELD*     SUNNY     64  34  32 E6        30.04F
HARRISBURG*    SUNNY     64  33  31 NE5       30.05F
ROBINSON*      SUNNY     64  32  30 CALM      30.07F
CARMI*         SUNNY     65  33  30 E5        30.04F
$$

ABBREVIATIONS USED IN REMARKS
   TC - TEMPERATURE IN CELSIUS
  WCI - WIND CHILL INDEX
   HX - HEAT INDEX
  VSB - VISIBILITY
$$




USA.gov is the U.S. government's official web portal to all federal, state and local government web resources and services.